Location: Bothwell
(41.7170°N, 112.2589°W)
Time: 03:36:02
(UTC+00:00)

Vanguard 1 - Pass Details

Date: 13 May 2026
Orbit: 654 x 3816 km, 34.2° (Epoch: 10 June)

Event Time Altitude Azimuth Distance (km) Brightness Sun altitude
Rises 06:13:31 0° 280° (W) 6,258 14.5 -27.6°
Reaches altitude 10° 06:17:33 10° 272° (W) 5,622 14.1 -27.9°
Maximum altitude 06:33:40 38° 213° (SSW) 4,714 13.1 -28.7°
Enters shadow 06:39:11 34° 189° (S) 5,058 13.1 -28.9°
